Weather History for KBUF - October, 2011

Change the Weather History Date:

Thursday, October 13, 2011

  Actual Average Record
Temperature  
Mean Temperature 66 °F 52 °F  
Max Temperature 74 °F 60 °F 82 °F (1969)
Min Temperature 57 °F 43 °F 30 °F (1993)
Degree Days  
Heating Degree Days 0 13  
Month to date heating degree days 83 147  
Since 1 July heating degree days 160 309  
Cooling Degree Days 1 0  
Month to date cooling degree days 4 0  
Year to date cooling degree days 776 540  
Growing Degree Days 15 (Base 50)    
Moisture  
Dew Point 56 °F    
Average Humidity 72    
Maximum Humidity 86    
Minimum Humidity 57    
Precipitation  
Precipitation T in 0.11 in 1.59 in (1885)
Month to date precipitation 1.36 1.59  
Year to date precipitation 38.99 30.65  
Snow  
Snow 0.00 in 0.00 in 14.00 in (2006)
Month to date snowfall 0.0 0.2  
Since 1 July snowfall 0.0 0.2  
Since 1 September snowfall 0.0 0.2  
Snow Depth 0.00 in    
Sea Level Pressure  
Sea Level Pressure 29.67 in    
Wind  
Wind Speed 7 mph (SE)    
Max Wind Speed 20 mph    
Max Gust Speed 28 mph    
Visibility 10 miles    
Events      
T = Trace of Precipitation, MM = Missing Value Source: NWS Daily Summary

Daily Weather History Graph

Daily Weather History Graph

Search for Another Location

Airport or City:

Trip Planner

Search our weather history database for the weather conditions in past years. The results will help you decide how hot, cold, wet, or windy it might be!

Date:

Astronomy

Oct. 13, 2011 Rise Set
Actual Time 7:25 AM EDT 6:36 PM EDT
Civil Twilight 6:57 AM EDT 7:04 PM EDT
Nautical Twilight 6:24 AM EDT 7:37 PM EDT
Astronomical Twilight 5:51 AM EDT 8:10 PM EDT
Moon 7:06 PM EDT (10/13) 8:59 AM EDT (10/13)
Length of Visible Light 12h 07m
Length of Day
11h 10m
Full, 98% of the Moon is Illuminated
Oct 13
Full
Oct 19
Last Quarter
Oct 26
New
Nov 2
First Quarter
Nov 10
Full

Hourly Weather History & Observations

Time (EDT) Temp. Dew Point Humidity Pressure Visibility Wind Dir Wind Speed Gust Speed Precip Events Conditions
12:54 AM 57.0 °F 53.1 °F 87% 29.81 in 10.0 mi SE 5.8 mph - N/A   Overcast
1:54 AM 57.2 °F 53.6 °F 88% 29.80 in 10.0 mi SE 5.8 mph - N/A   Overcast
2:54 AM 57.9 °F 54.0 °F 87% 29.78 in 10.0 mi SE 5.8 mph - N/A   Overcast
3:54 AM 57.9 °F 54.0 °F 87% 29.77 in 10.0 mi SE 3.5 mph - N/A   Overcast
4:54 AM 59.0 °F 54.0 °F 83% 29.76 in 10.0 mi SE 4.6 mph - N/A   Overcast
5:40 AM 59.0 °F 53.6 °F 82% 29.76 in 10.0 mi SSE 4.6 mph - N/A   Overcast
5:54 AM 59.0 °F 54.0 °F 83% 29.76 in 10.0 mi SE 5.8 mph - N/A   Overcast
6:40 AM 59.0 °F 53.6 °F 82% 29.75 in 10.0 mi SE 6.9 mph - N/A   Mostly Cloudy
6:54 AM 59.0 °F 54.0 °F 83% 29.75 in 10.0 mi SE 6.9 mph - N/A   Mostly Cloudy
7:20 AM 59.0 °F 53.6 °F 82% 29.75 in 10.0 mi SSE 6.9 mph - N/A   Mostly Cloudy
7:54 AM 59.0 °F 54.0 °F 83% 29.75 in 10.0 mi SE 6.9 mph - N/A   Mostly Cloudy
8:54 AM 60.1 °F 55.0 °F 83% 29.75 in 10.0 mi SSE 4.6 mph - N/A   Mostly Cloudy
9:54 AM 62.1 °F 55.0 °F 78% 29.74 in 10.0 mi South 8.1 mph - N/A   Mostly Cloudy
10:54 AM 63.0 °F 55.0 °F 75% 29.73 in 10.0 mi SSE 9.2 mph - N/A   Mostly Cloudy
11:54 AM 64.9 °F 55.9 °F 73% 29.70 in 10.0 mi ESE 5.8 mph - N/A   Mostly Cloudy
12:54 PM 68.0 °F 57.0 °F 68% 29.67 in 10.0 mi Calm Calm - N/A   Mostly Cloudy
1:54 PM 70.0 °F 57.0 °F 63% 29.65 in 10.0 mi ESE 4.6 mph - N/A   Mostly Cloudy
3:54 PM 73.0 °F 57.0 °F 57% 29.58 in 10.0 mi ENE 5.8 mph - N/A   Mostly Cloudy
4:54 PM 71.1 °F 57.9 °F 63% 29.57 in 10.0 mi SE 11.5 mph - N/A   Mostly Cloudy
5:54 PM 69.1 °F 59.0 °F 70% 29.56 in 10.0 mi ESE 10.4 mph - N/A   Mostly Cloudy
6:54 PM 66.0 °F 59.0 °F 78% 29.56 in 10.0 mi East 10.4 mph - N/A   Mostly Cloudy
7:54 PM 64.9 °F 59.0 °F 81% 29.55 in 10.0 mi ESE 8.1 mph - 0.00 in   Mostly Cloudy
8:54 PM 64.0 °F 59.0 °F 84% 29.53 in 10.0 mi ESE 8.1 mph - N/A   Mostly Cloudy
9:54 PM 64.4 °F 57.2 °F 77% 29.51 in 10.0 mi ESE 9.2 mph - N/A   Scattered Clouds
10:54 PM 64.9 °F 57.9 °F 78% 29.48 in 10.0 mi ESE 6.9 mph - N/A   Mostly Cloudy
11:54 PM 64.9 °F 57.9 °F 78% 29.44 in 10.0 mi SSE 8.1 mph - N/A   Mostly Cloudy